sat.trackr.live / text

‹ back to catalog

STARLINK-4257

NORAD 53184 · 2022-083BE

PAYLOAD ACTIVE UNKNOWN

§ Identity

Operator
Country
US
Launch date
2022-07-17
Launch site
AFETR
Launch vehicle
Mass (kg)
RCS (m²)

Purposes: comms

External: N2YO · Heavens-Above · Gunter

§ Orbital elements

Epoch: 2026-09-19T15:34:47.649504Z

Period
94.01 min
Inclination
53.1609°
Eccentricity
0.0001195
Mean motion
15.31703363 rev/d
Perigee alt
469.9 km
Apogee alt
471.5 km
Semi-major
6,848.9 km
B*
3.1707e-5
RAAN
322.8044°
Arg perigee
80.0628°
Mean anomaly
280.0509°
Rev number
23,134

§ Raw data

STARLINK-42571 53184U 22083BE  26262.64916261  .00000619  00000+0  31707-4 0  99962 53184  53.1609 322.8044 0001195  80.0628 280.0509 15.31703363231349

JSON: /api/v1/satellites/53184 · /tle

For live sub-satellite position, see the globe view (requires WebGL).

§ Visibility from observer

Set your observer location to see the next 7 days of passes ≥ 10°. The values pass through the URL so the page stays shareable.

No JS? Fill the form by hand. The geolocation button needs JavaScript.